Regional Weather Roundup
Issued by NWS Huntsville, AL

Home | Current Version | Previous Version | Text Only | Print | Product List | Glossary On
Versions: 1 2 3 4 5 6 7 8 9 10 11 12 13 14 15 16 17 18 19 20 21 22 23 24 25 26 27 28
000
ASUS44 KHUN 300910
RWRHUN

WEATHER ROUNDUP FOR THE TENNESSEE VALLEY
NATIONAL WEATHER SERVICE HUNTSVILLE AL
400 AM CDT TUE AUG 30 2016

ALZ001>004-301000-
NORTHWEST ALABAMA

CITY           SKY/WX    TMP DP  RH WIND       PRES   REMARKS
COURTLAND HCN    N/A     72 N/A N/A CALM        N/A
RUSSELLVILLE     N/A     68 N/A N/A MISG        N/A
SHOALS AIRPORT CLEAR     71  69  93 E3        30.07S
SHOALS TVA RES   N/A     72 N/A N/A MISG        N/A
$$

ALZ005>007-016-301000-
NORTH CENTRAL ALABAMA

CITY           SKY/WX    TMP DP  RH WIND       PRES   REMARKS
CULLMAN AG STN   N/A     68 N/A N/A CALM        N/A
DECATUR AP     CLEAR     70  69  97 E5        30.07S FOG
HUNTSVILLE AP  CLEAR     73  68  84 E5        30.06F
MERIDIANVILLE  CLEAR     68  63  83 CALM      30.08S
REDSTONE ARSN  CLEAR     72  70  93 NE3       30.06F
VINEMONT AP    FAIR      69  64  85 CALM      30.09F
$$

ALZ008>010-301000-
NORTHEAST ALABAMA

CITY           SKY/WX    TMP DP  RH WIND       PRES   REMARKS
ALBERTVILLE    PTCLDY    72  70  94 E6        30.08S
FORT PAYNE     CLEAR     64  63  94 CALM      30.09S
SCOTTSBORO AP  CLEAR     68  68 100 CALM      30.10S
SCOTTSBORO HCN   N/A     66 N/A N/A MISG        N/A
VALLEY HEAD      N/A     66 N/A N/A MISG        N/A
$$

TNZ076-096-097-301000-
SOUTHEASTERN MIDDLE TENNESSEE

CITY           SKY/WX    TMP DP  RH WIND       PRES   REMARKS
TULLAHOMA      CLEAR     70  68  94 CALM      30.12S
WINCHESTER     CLEAR     66  66 100 CALM      30.10F
$$

...SURROUNDING SITES...

CITY           SKY/WX    TMP DP  RH WIND       PRES   REMARKS
ATLANTA        CLEAR     73  68  84 E7        30.08F
ANNISTON       CLEAR     75  67  76 E6        30.05F
BIRMINGHAM     CLEAR     79  67  66 NE5       30.06F
CHATTANOOGA    CLEAR     70  66  87 CALM      30.10S
DALTON         CLEAR     64  64 100 CALM      30.10S
GADSDEN        CLEAR     69  67  93 CALM      30.06F
GOLDEN TRNGL   CLEAR     75  64  69 E6        30.00F
JACKSON TN     FOG       73  72  96 CALM      30.06F VSB 3/4
MEMPHIS        CLEAR     82  73  74 VRB6      30.05S
NASHVILLE      CLEAR     76  71  85 CALM      30.09F
OXFORD MS      FAIR      72  70  94 CALM      30.06S
ROME           CLEAR     69  65  86 N3        30.08S
SAVANNAH       MOCLDY    70  70 100 CALM      30.04F FOG
TUPELO         CLEAR     75  71  87 CALM      30.03S
TUSCALOOSA     CLEAR     73  72  96 CALM      30.01F
$$

...GULF COAST WEATHER...

CITY           SKY/WX    TMP DP  RH WIND       PRES   REMARKS
GULFPORT       CLEAR     77  74  90 NE5       29.92F
PASCAGOULA     CLEAR     75  74  96 NE5       29.93F
MOBILE         CLEAR     75  71  87 NE6       29.95F
GULF SHORES    SUNNY     76  74  93 NE6       29.93S
PENSACOLA      CLEAR     80  73  79 NE8       29.93S
DESTIN         CLEAR     82  74  76 VRB7      29.94F
PANAMA CITY    CLEAR     76  72  87 NE7       29.93F
APPALACHICOLA  PTCLDY    78  77  96 NE8       29.91F
$$





USA.gov is the U.S. government's official web portal to all federal, state and local government web resources and services.